SCP
0 0 0 0 0 0 0 0 1 1 1 1 2 2 3 4 4 4 3 2 2 2 2 2 3 4 5 4 3 2 3 2 2 2 2 1 1 1 1 1 1 1 1 1
0 0 0 0 0 0 0 0 1 1 1 2 2 3 3 4 4 3 3 2 2 2 2 2 3 4 5 4 3 3 3 3 2 2 2 1 1 1 1 1 1 1 1 1
0 0 0 0 0 0 1 1 1 1 2 2 3 3 4 4 4 4 3 3 3 3 3 3 3 4 4 3 3 3 4 3 3 2 2 1 1 1 1 1 1 1 1 1
0 0 0 1 1 1 1 1 1 1 2 3 3 4 4 4 5 5 4 3 3 4 4 4 4 4 4 3 3 4 4 4 3 3 2 2 2 2 2 1 1 1 0 0
0 0 1 1 1 1 1 1 1 1 2 3 3 4 4 4 5 5 5 4 3 3 4 4 4 4 4 4 4 4 4 3 3 3 3 2 2 2 2 1 1 0 0 0
0 0 1 1 1 1 1 1 1 2 3 3 3 3 3 4 5 5 5 4 3 3 3 4 5 6 5 4 4 4 3 3 3 3 3 2 2 2 1 1 0 0 0 0
0 0 1 1 1 1 1 1 2 3 3 3 3 2 3 4 5 5 4 4 3 3 3 4 6 6 6 5 4 4 3 3 3 3 2 2 1 1 1 1 0 0 0 0
0 0 1 2 2 2 1 2 4 4 4 3 3 3 3 4 5 5 5 4 4 3 3 4 5 6 6 5 4 4 3 3 3 2 2 2 1 1 1 1 0 0 0 0
1 1 1 2 3 3 3 3 5 5 5 3 3 3 4 5 5 5 5 5 5 5 4 4 4 5 5 5 4 4 4 3 2 2 2 2 2 2 1 1 1 0 0 0
1 2 2 3 4 4 3 3 4 5 5 5 4 4 5 5 6 6 5 5 5 6 5 5 5 5 5 5 4 4 3 2 2 1 2 2 2 2 1 1 1 1 0 0
2 2 3 3 3 3 3 3 4 5 5 6 6 6 6 6 6 5 5 5 5 5 5 5 4 4 4 4 4 3 3 2 1 1 1 1 1 1 1 1 1 1 0 0
2 2 2 3 3 2 2 3 3 5 6 6 7 7 8 7 6 5 4 4 4 5 4 4 3 3 3 3 3 3 2 1 1 0 0 0 0 0 0 0 0 0 0 0
2 3 3 3 2 2 2 2 3 4 5 5 6 6 7 7 6 5 4 4 4 4 4 3 3 2 2 2 2 2 1 1 1 0 0 0 0 0 0 0 0 0 0 0
3 3 4 3 3 2 2 2 2 3 3 4 5 5 6 6 5 5 4 3 4 4 3 2 2 2 1 1 1 1 1 1 1 0 0 0 0 0 0 0 0 0 0 0
4 4 4 3 3 2 2 2 2 2 3 3 4 5 5 4 4 4 3 3 3 3 2 2 2 2 2 2 1 1 1 1 0 0 0 0 0 0 0 0 0 0 0 0
4 3 3 3 3 2 2 2 2 2 2 3 3 4 3 3 2 3 3 3 3 2 2 1 1 2 2 2 2 1 1 0 0 0 0 0 0 0 0 0 0 0 0 0
4 3 3 3 2 2 2 2 1 1 1 2 2 2 2 1 1 1 2 2 2 2 2 2 2 2 3 3 2 2 1 0 0 0 0 0 0 0 0 0 0 0 0 0
3 3 3 2 2 2 2 2 1 1 1 1 1 1 1 1 1 1 1 1 2 2 2 2 2 3 3 3 2 1 1 0 0 0 0 0 0 0 0 0 0 0 0 0
1 2 2 2 1 1 1 1 2 1 1 1 0 0 0 0 0 0 1 1 2 2 2 2 2 3 3 2 1 1 1 0 0 0 0 0 0 0 0 0 0 0 0 0
1 1 1 1 1 1 1 1 2 2 1 1 0 0 0 0 0 0 0 1 2 2 2 2 2 2 2 1 1 1 1 0 0 0 0 0 0 0 0 0 0 0 0 0
0 0 0 0 0 0 1 1 2 2 1 1 0 0 0 0 0 0 0 1 1 2 1 1 1 1 1 1 0 0 0 0 0 0 0 0 0 0 0 0 0 0 0 0
0 0 0 0 0 0 1 1 1 1 1 1 0 0 0 0 0 0 0 1 1 1 1 1 1 1 0 0 0 0 0 0 0 0 0 0 0 0 0 0 0 0 0 0
0 0 0 0 0 1 1 1 1 1 1 0 0 0 0 0 0 0 0 0 0 0 0 0 0 0 0 0 0 0 0 0 0 0 0 0 0 0 0 0 0 0 0 0
0 0 0 0 1 1 1 1 1 0 0 0 0 0 0 0 0 0 0 0 0 0 0 0 0 0 0 0 0 0 0 0 0 0 0 0 0 0 0 0 0 0 0 0
0 0 0 0 1 1 1 1 0 0 0 0 0 0 0 0 0 0 0 0 0 0 0 0 0 0 0 0 0 0 0 0 0 0 0 0 0 0 0 0 0 0 0 0
0 0 0 1 1 1 1 1 0 0 0 0 0 0 0 0 0 0 0 0 0 0 0 0 0 0 0 0 0 0 0 0 0 0 0 0 0 0 0 0 0 0 0 0
0 0 0 1 1 1 1 1 0 0 0 0 0 0 0 0 0 0 0 0 0 0 0 0 0 0 0 0 0 0 0 0 0 0 0 0 0 0 0 0 0 0 0 0
Wind_Speed
5 5 4 4 6 7 6 9 10 9 8 9 7 6 6 5 6 6 6 6 6 6 5 5 5 5 5 4 4 4 5 5 4 3 4 4 4 4 4 4 4 4 4 4
2 3 4 3 5 8 6 5 5 4 7 6 3 3 4 6 7 7 6 6 6 6 6 6 6 5 5 5 4 5 5 4 4 4 4 4 4 4 4 5 5 5 6 5
3 1 2 4 6 7 5 5 8 9 9 4 4 7 8 8 8 8 7 6 7 6 6 5 5 6 6 6 5 5 5 5 5 5 5 4 4 5 5 5 5 6 6 6
3 3 5 8 3 5 5 4 5 5 5 7 7 5 3 5 7 7 7 7 6 6 6 5 5 5 6 6 6 6 6 5 4 5 5 4 5 5 4 4 5 5 6 6
4 4 3 4 2 5 5 4 4 5 5 4 5 4 1 2 5 7 7 6 6 6 6 6 6 7 7 6 6 6 6 5 5 5 5 5 5 4 4 5 5 5 5 6
5 5 6 7 3 2 5 3 3 5 6 6 7 4 5 4 6 6 7 6 6 6 7 7 6 7 8 7 6 6 5 5 5 5 6 6 5 4 4 5 5 5 6 6
5 3 6 6 3 3 5 8 3 5 6 7 6 6 5 7 6 7 7 7 7 7 6 6 6 8 8 7 6 5 6 6 6 5 6 6 5 4 5 5 6 6 6 6
5 4 7 3 2 5 6 2 3 4 5 6 5 3 5 8 8 8 8 7 8 8 5 5 6 7 7 6 5 6 6 6 6 5 5 5 6 5 5 5 6 5 5 5
6 6 4 2 2 3 2 2 3 4 4 6 6 5 6 7 8 8 8 7 6 8 7 5 5 6 7 5 6 7 7 6 6 6 5 5 5 5 4 4 4 3 4 4
1 2 3 2 2 2 0 1 1 3 5 6 6 7 7 7 7 7 7 7 6 8 7 6 4 4 5 6 6 7 7 6 6 6 5 5 4 3 4 3 3 3 3 3
0 2 3 3 3 3 2 2 4 4 4 6 8 8 8 7 7 7 6 6 6 6 6 6 5 5 5 6 7 7 7 6 6 6 6 5 5 4 3 2 2 3 3 3
4 4 2 3 3 2 3 3 3 5 5 5 6 7 8 7 6 6 6 6 6 6 6 6 5 5 5 5 7 8 7 6 5 5 5 5 5 5 8 6 6 6 4 4
4 2 2 2 2 2 3 3 3 4 5 5 4 6 7 6 5 6 6 6 6 6 6 6 5 5 4 5 6 7 7 6 5 5 5 5 5 5 4 5 8 8 6 5
2 2 1 0 1 3 3 3 5 5 5 5 5 6 7 7 6 6 5 4 5 6 6 5 5 4 4 5 6 6 6 6 6 5 5 5 4 4 4 5 3 3 4 5
1 2 3 2 2 3 3 4 5 5 5 6 6 6 7 6 6 5 5 5 6 6 5 5 5 4 4 5 6 7 6 5 5 5 4 4 4 4 4 5 4 3 3 3
1 3 3 3 3 2 2 3 4 4 5 5 6 6 6 6 5 5 5 6 6 6 4 4 4 4 5 6 6 6 5 8 7 5 5 5 4 4 4 4 4 3 3 2
4 2 2 2 2 1 1 2 3 4 5 5 5 6 7 7 6 5 4 4 4 4 4 4 4 4 5 6 6 5 5 6 8 6 5 5 4 4 4 4 4 3 2 2
4 4 4 5 4 3 2 2 3 4 5 5 6 6 6 6 6 4 4 4 5 4 2 3 4 5 5 5 5 5 5 5 5 5 5 4 4 4 4 4 4 4 2 2
3 3 2 2 3 3 3 3 3 3 4 5 6 5 5 5 5 5 5 5 4 3 2 3 5 5 5 5 6 5 6 6 5 4 4 5 5 4 4 4 4 3 3 3
2 3 3 2 2 3 3 3 4 4 4 5 5 5 5 4 4 5 5 3 3 2 3 5 5 5 4 5 6 5 6 6 6 5 5 4 4 4 4 4 4 4 4 3
2 3 3 3 2 2 2 3 4 4 4 5 5 6 5 4 4 4 4 3 1 3 4 6 4 4 4 5 6 5 5 5 5 5 5 5 5 4 4 4 4 4 4 4
1 1 2 2 2 2 2 3 3 4 4 4 4 5 5 5 4 3 2 2 3 5 4 4 4 5 6 6 4 5 5 5 5 5 5 5 5 5 5 5 4 4 4 4
0 1 1 2 2 2 2 3 3 4 4 4 4 5 5 4 3 4 2 1 3 5 4 3 5 8 8 5 4 4 5 5 5 5 5 5 5 5 5 5 4 4 4 4
1 1 2 2 2 3 3 2 3 3 3 3 3 4 4 4 2 1 2 4 5 6 4 5 7 8 7 4 4 4 4 4 4 4 4 4 4 4 4 4 4 4 4 5
1 2 2 2 2 2 3 3 3 4 4 3 3 3 2 3 3 3 3 4 6 6 4 5 7 7 5 4 4 4 4 4 4 4 4 4 4 4 4 4 4 4 4 4
2 2 1 1 1 2 2 3 3 3 3 3 2 2 3 3 4 4 4 4 6 6 4 4 4 5 4 4 4 4 4 4 5 4 4 4 4 4 4 4 5 4 4 3
2 2 2 2 2 2 2 3 3 3 3 3 3 2 3 3 4 4 5 4 4 4 4 4 3 3 4 4 4 3 3 3 3 3 3 3 4 3 3 4 3 3 3 3
Wind_Direction
208 209 183 186 180 172 173 176 177 211 213 239 227 203 188 170 153 147 150 150 151 150 147 143 138 134 130 128 123 122 118 114 114 108 100 91 82 74 66 62 64 60 58 56
208 213 196 195 190 181 188 175 187 183 236 240 215 163 169 172 165 167 170 165 156 152 152 153 151 144 135 132 131 124 118 116 112 106 98 91 87 82 75 65 62 62 61 62
208 240 122 228 210 188 189 187 169 193 220 180 171 185 188 184 177 177 173 166 161 160 160 157 154 148 146 141 130 122 118 114 115 113 105 97 95 89 81 73 72 68 64 66
139 120 201 240 230 178 176 211 204 204 197 183 190 188 180 173 170 167 162 160 159 153 146 143 138 134 129 126 127 124 117 114 113 113 108 100 94 90 82 78 77 76 71 69
125 161 245 285 210 167 166 243 210 186 179 162 140 92 9 190 163 165 159 151 150 145 138 134 134 135 129 127 126 124 125 124 122 121 117 109 102 95 87 88 81 77 78 77
124 143 211 235 249 193 127 247 238 175 172 162 134 144 229 184 151 143 137 138 135 127 125 130 137 138 133 135 135 139 141 136 133 128 125 119 112 101 92 93 92 90 80 71
141 172 249 252 275 124 158 226 216 176 175 167 178 191 171 139 137 139 135 135 132 127 130 136 139 138 138 140 148 147 137 128 124 124 122 119 111 103 102 99 93 89 86 73
139 158 242 292 112 168 214 224 165 167 170 163 162 141 130 138 140 137 133 133 134 130 131 130 137 137 139 148 145 134 129 127 125 123 123 120 115 107 103 104 99 94 91 79
178 200 243 281 236 250 209 178 183 168 163 150 147 143 137 140 139 137 137 137 133 132 127 127 133 139 143 145 137 134 130 128 124 119 108 111 115 115 108 103 106 104 101 96
183 271 292 306 320 348 89 173 167 150 144 144 142 142 139 140 141 138 138 138 133 131 131 131 127 126 136 140 139 137 135 131 126 122 110 97 96 106 114 115 117 120 118 114
204 283 335 352 352 354 37 68 92 96 114 134 134 137 141 142 143 140 135 132 131 137 138 137 131 125 129 138 138 136 135 132 126 119 116 103 88 72 91 88 131 142 144 140
208 224 192 265 307 359 65 67 97 102 96 104 123 136 135 137 137 137 138 134 130 131 131 130 129 130 134 139 141 141 138 136 132 128 124 121 113 86 54 67 75 80 107 127
211 210 197 250 328 34 70 62 82 102 115 112 104 120 123 124 126 130 135 135 137 137 132 132 133 136 141 141 143 147 148 145 141 140 139 139 136 129 109 64 61 67 80 99
191 135 108 337 50 54 70 70 79 83 86 95 102 107 111 113 120 127 132 133 130 128 130 134 137 145 149 142 141 141 142 144 143 143 143 141 139 134 130 127 112 67 50 75
300 158 166 141 79 64 77 90 88 86 90 92 101 110 112 117 125 126 124 125 123 122 127 133 137 147 147 143 141 141 140 140 137 135 133 131 129 128 126 124 123 114 96 74
115 91 110 110 105 82 80 97 110 122 119 114 110 109 111 115 114 113 119 133 137 138 140 145 151 154 149 146 142 139 139 141 139 138 134 132 132 133 134 135 136 135 134 129
143 153 159 160 156 136 143 149 156 143 125 124 125 124 121 116 111 110 117 128 134 140 151 156 157 151 149 148 145 140 137 141 139 137 142 145 146 147 148 146 146 144 143 141
176 182 185 183 176 175 183 148 136 134 138 141 133 132 132 134 139 139 135 123 111 104 120 147 149 145 146 148 145 140 138 141 144 145 146 148 148 147 147 145 147 146 131 114
159 157 158 162 169 168 163 154 147 140 139 141 141 145 146 145 144 138 131 126 135 145 163 147 141 142 144 149 142 138 138 138 138 139 143 144 143 143 144 146 149 151 145 140
106 118 123 123 140 150 160 159 147 142 148 149 144 140 139 140 140 138 131 137 169 176 163 150 143 140 142 146 139 138 140 142 143 143 143 147 149 147 148 152 151 151 153 154
93 105 116 131 139 142 151 152 149 150 151 154 153 151 146 140 141 145 142 150 177 146 144 145 142 141 140 142 138 137 139 142 144 147 150 150 149 149 152 155 156 158 158 156
81 105 125 139 134 133 137 141 145 145 144 148 144 139 137 140 143 138 146 159 157 144 140 142 142 141 142 140 138 139 142 145 148 149 151 152 154 156 158 159 160 160 158 159
99 114 125 135 139 139 123 128 138 145 149 152 150 149 149 152 154 150 152 141 132 137 132 136 137 138 141 137 139 143 147 149 150 155 158 161 162 161 161 163 164 162 161 163
90 98 111 117 116 123 127 132 131 133 131 131 138 144 141 133 120 119 126 131 130 129 122 130 136 140 139 137 139 142 144 144 143 147 152 153 154 156 159 160 160 163 167 169
103 106 108 115 119 134 141 131 116 111 112 114 114 111 118 131 137 134 122 125 128 124 114 125 134 138 137 130 131 132 134 139 142 146 150 152 156 160 162 162 165 168 172 177
93 95 100 117 138 140 135 130 128 129 129 123 112 109 107 107 113 116 118 122 122 118 115 120 131 132 124 122 125 130 132 137 139 142 146 146 148 152 156 161 164 169 171 174
79 83 82 67 66 104 123 126 130 133 134 133 127 120 118 117 117 118 118 116 115 114 113 116 120 123 120 119 120 121 120 123 128 134 140 141 143 147 153 155 156 158 159 161